| time (UTC) | temp F | wind direction | speed MPH | gust MPH | rain 1hr in | rain 24hr in | rain mn in | humidity % | barometer mb |
| 20260904034304 | 57 | 53 | 1.0 | 1.0 | 0.01 | 0.10 | 0.10 | 63 | 1008.8 |
| 20260904033804 | 58 | 53 | 1.0 | 1.0 | 0.01 | 0.10 | 0.10 | 63 | 1008.7 |
| 20260904033303 | 58 | 53 | 1.0 | 1.0 | 0.01 | 0.10 | 0.10 | 61 | 1008.8 |
| 20260904032804 | 58 | 53 | 1.0 | 1.0 | 0.01 | 0.10 | 0.10 | 61 | 1008.8 |
| 20260904032306 | 58 | 53 | 1.0 | 1.0 | 0.01 | 0.10 | 0.10 | 61 | 1008.8 |
| 20260904031803 | 58 | 53 | 1.0 | 1.0 | 0.01 | 0.10 | 0.10 | 62 | 1008.7 |
| 20260904031304 | 59 | 53 | 1.0 | 1.0 | 0.01 | 0.10 | 0.10 | 66 | 1008.7 |
| 20260904030803 | 59 | 53 | 1.0 | 1.0 | 0.01 | 0.10 | 0.10 | 64 | 1008.6 |
| 20260904030304 | 59 | 53 | 1.0 | 1.0 | 0.01 | 0.10 | 0.10 | 65 | 1008.7 |
| 20260904025804 | 60 | 53 | 1.0 | 1.0 | 0.01 | 0.10 | 0.10 | 73 | 1008.7 |
| 20260904025306 | 60 | 53 | 1.0 | 1.0 | 0.01 | 0.10 | 0.10 | 74 | 1008.6 |
| 20260904024804 | 60 | 53 | 1.0 | 1.0 | 0.01 | 0.10 | 0.10 | 72 | 1008.6 |
| 20260904024304 | 60 | 53 | 1.0 | 1.0 | 0.00 | 0.09 | 0.09 | 72 | 1008.3 |
| 20260904023804 | 61 | 53 | 1.0 | 1.0 | 0.00 | 0.09 | 0.09 | 71 | 1008.4 |
| 20260904023304 | 61 | 53 | 1.0 | 1.0 | 0.00 | 0.09 | 0.09 | 72 | 1008.3 |
| 20260904022804 | 61 | 53 | 1.0 | 1.0 | 0.00 | 0.09 | 0.09 | 71 | 1008.1 |
| 20260904022306 | 61 | 53 | 1.0 | 1.0 | 0.00 | 0.09 | 0.09 | 71 | 1008.2 |
| 20260904021804 | 61 | 53 | 1.0 | 1.0 | 0.00 | 0.09 | 0.09 | 70 | 1008.1 |
| 20260904021304 | 61 | 53 | 1.0 | 1.0 | 0.00 | 0.09 | 0.09 | 69 | 1008.0 |
| 20260904020804 | 61 | 53 | 1.0 | 1.0 | 0.00 | 0.09 | 0.09 | 69 | 1007.9 |
| 20260904020304 | 61 | 53 | 1.0 | 1.0 | 0.00 | 0.09 | 0.09 | 68 | 1007.9 |
| 20260904015804 | 61 | 53 | 1.0 | 1.0 | 0.00 | 0.09 | 0.09 | 68 | 1007.7 |
| 20260904015306 | 61 | 53 | 1.0 | 1.0 | 0.00 | 0.09 | 0.09 | 68 | 1007.9 |
| 20260904014804 | 61 | 53 | 1.0 | 1.0 | 0.00 | 0.09 | 0.09 | 67 | 1007.8 |
| 20260904014304 | 61 | 53 | 1.0 | 1.0 | 0.00 | 0.09 | 0.09 | 67 | 1007.7 |
| 20260904013804 | 61 | 53 | 1.0 | 1.0 | 0.00 | 0.09 | 0.09 | 67 | 1007.7 |
| 20260904013304 | 61 | 53 | 1.0 | 1.0 | 0.00 | 0.09 | 0.09 | 67 | 1007.5 |
| 20260904012804 | 61 | 53 | 1.0 | 1.0 | 0.00 | 0.09 | 0.09 | 67 | 1007.7 |
| 20260904012306 | 61 | 53 | 1.0 | 1.0 | 0.00 | 0.09 | 0.09 | 67 | 1007.7 |
| 20260904011804 | 61 | 53 | 1.0 | 1.0 | 0.00 | 0.09 | 0.09 | 67 | 1007.4 |
| 20260904011304 | 61 | 53 | 1.0 | 1.0 | 0.00 | 0.09 | 0.09 | 66 | 1007.5 |
| 20260904010803 | 62 | 53 | 1.0 | 1.0 | 0.00 | 0.09 | 0.09 | 66 | 1007.5 |
| 20260904010304 | 62 | 53 | 1.0 | 1.0 | 0.00 | 0.09 | 0.09 | 66 | 1007.5 |
| 20260904005804 | 62 | 53 | 1.0 | 1.0 | 0.00 | 0.09 | 0.09 | 66 | 1007.6 |
| 20260904005306 | 62 | 53 | 1.0 | 1.0 | 0.00 | 0.09 | 0.09 | 65 | 1007.4 |
| 20260904004804 | 62 | 53 | 1.0 | 1.0 | 0.00 | 0.09 | 0.09 | 64 | 1007.5 |
| 20260904004304 | 62 | 53 | 1.0 | 1.0 | 0.00 | 0.09 | 0.09 | 62 | 1007.4 |
| 20260904003304 | 63 | 53 | 1.0 | 1.0 | 0.00 | 0.09 | 0.09 | 60 | 1007.3 |
| 20260904002804 | 63 | 53 | 1.0 | 1.0 | 0.00 | 0.09 | 0.09 | 60 | 1007.4 |
| 20260904002306 | 63 | 53 | 1.0 | 1.0 | 0.00 | 0.09 | 0.09 | 59 | 1007.5 |
| 20260904001804 | 63 | 53 | 1.0 | 1.0 | 0.00 | 0.09 | 0.09 | 58 | 1007.6 |
| 20260904001304 | 63 | 53 | 1.0 | 1.0 | 0.00 | 0.09 | 0.09 | 58 | 1007.5 |
| 20260904000804 | 63 | 53 | 1.0 | 1.0 | 0.00 | 0.09 | 0.09 | 58 | 1007.3 |
| 20260903235804 | 63 | 53 | 1.0 | 1.0 | 0.00 | 0.09 | 0.09 | 61 | 1007.4 |
| 20260903234804 | 62 | 53 | 1.0 | 1.0 | 0.00 | 0.09 | 0.09 | 61 | 1007.3 |
| 20260903234305 | 62 | 53 | 1.0 | 1.0 | 0.00 | 0.09 | 0.09 | 62 | 1007.3 |
| 20260903233804 | 62 | 53 | 1.0 | 1.0 | 0.00 | 0.09 | 0.09 | 61 | 1007.5 |
| 20260903232804 | 63 | 53 | 1.0 | 1.0 | 0.00 | 0.09 | 0.09 | 60 | 1007.5 |
| 20260903232306 | 63 | 53 | 1.0 | 1.0 | 0.00 | 0.09 | 0.09 | 62 | 1007.6 |
| 20260903231804 | 62 | 53 | 1.0 | 1.0 | 0.00 | 0.09 | 0.09 | 62 | 1007.4 |
| 20260903231304 | 63 | 53 | 1.0 | 1.0 | 0.00 | 0.09 | 0.09 | 60 | 1007.5 |
| 20260903230804 | 63 | 53 | 1.0 | 1.0 | 0.00 | 0.09 | 0.09 | 60 | 1007.5 |
| 20260903230304 | 63 | 53 | 1.0 | 1.0 | 0.00 | 0.09 | 0.09 | 61 | 1007.4 |
| 20260903225306 | 64 | 53 | 1.0 | 1.0 | 0.00 | 0.09 | 0.09 | 61 | 1007.4 |
| 20260903224804 | 64 | 53 | 1.0 | 1.0 | 0.00 | 0.09 | 0.09 | 60 | 1007.5 |
| 20260903224304 | 64 | 53 | 1.0 | 1.0 | 0.00 | 0.09 | 0.09 | 63 | 1007.4 |
| 20260903223304 | 64 | 53 | 1.0 | 1.0 | 0.00 | 0.09 | 0.09 | 61 | 1007.3 |
| 20260903222305 | 64 | 53 | 1.0 | 1.0 | 0.00 | 0.09 | 0.09 | 58 | 1007.1 |
| 20260903221303 | 64 | 53 | 1.0 | 1.0 | 0.00 | 0.09 | 0.09 | 63 | 1007.4 |
| 20260903220804 | 64 | 53 | 1.0 | 1.0 | 0.00 | 0.09 | 0.09 | 66 | 1007.5 |
| 20260903220304 | 63 | 53 | 1.0 | 1.0 | 0.00 | 0.09 | 0.09 | 67 | 1007.2 |
| 20260903215804 | 64 | 53 | 1.0 | 1.0 | 0.00 | 0.09 | 0.09 | 65 | 1007.4 |
| 20260903215306 | 64 | 53 | 1.0 | 1.0 | 0.00 | 0.09 | 0.09 | 63 | 1007.3 |
| 20260903214804 | 63 | 53 | 1.0 | 1.0 | 0.00 | 0.09 | 0.09 | 64 | 1007.5 |
| 20260903214304 | 63 | 53 | 1.0 | 1.0 | 0.00 | 0.09 | 0.09 | 65 | 1007.4 |
| 20260903213804 | 64 | 53 | 1.0 | 1.0 | 0.00 | 0.09 | 0.09 | 65 | 1007.5 |
| 20260903213303 | 64 | 53 | 1.0 | 1.0 | 0.00 | 0.09 | 0.09 | 67 | 1007.3 |
| 20260903212804 | 63 | 53 | 1.0 | 1.0 | 0.00 | 0.09 | 0.09 | 66 | 1007.4 |
| 20260903212306 | 63 | 53 | 1.0 | 1.0 | 0.00 | 0.09 | 0.09 | 66 | 1007.3 |
| 20260903211804 | 63 | 53 | 1.0 | 1.0 | 0.00 | 0.09 | 0.09 | 67 | 1007.5 |
| 20260903211303 | 62 | 53 | 1.0 | 1.0 | 0.00 | 0.09 | 0.09 | 70 | 1007.4 |
| 20260903210304 | 62 | 53 | 1.0 | 1.0 | 0.00 | 0.09 | 0.09 | 72 | 1007.3 |
| 20260903205804 | 61 | 53 | 1.0 | 1.0 | 0.00 | 0.09 | 0.09 | 74 | 1007.4 |
| 20260903205306 | 61 | 53 | 1.0 | 1.0 | 0.00 | 0.09 | 0.09 | 74 | 1007.3 |
| 20260903204804 | 60 | 53 | 1.0 | 1.0 | 0.00 | 0.09 | 0.09 | 73 | 1007.3 |
| 20260903204304 | 60 | 53 | 1.0 | 1.0 | 0.00 | 0.09 | 0.09 | 73 | 1007.2 |
| 20260903203804 | 60 | 53 | 1.0 | 1.0 | 0.00 | 0.09 | 0.09 | 76 | 1007.1 |
| 20260903202804 | 59 | 53 | 1.0 | 1.0 | 0.00 | 0.09 | 0.09 | 76 | 1007.2 |
| 20260903202306 | 59 | 53 | 1.0 | 1.0 | 0.01 | 0.09 | 0.09 | 78 | 1007.1 |
| 20260903201804 | 58 | 53 | 1.0 | 1.0 | 0.02 | 0.09 | 0.09 | 79 | 1007.0 |
| 20260903201304 | 58 | 53 | 1.0 | 1.0 | 0.03 | 0.09 | 0.09 | 81 | 1007.3 |
| 20260903200804 | 58 | 53 | 1.0 | 1.0 | 0.05 | 0.09 | 0.09 | 80 | 1006.9 |
| 20260903200304 | 57 | 53 | 1.0 | 1.0 | 0.06 | 0.09 | 0.09 | 80 | 1007.1 |
| 20260903195804 | 57 | 53 | 1.0 | 1.0 | 0.07 | 0.09 | 0.09 | 81 | 1007.3 |
| 20260903195306 | 56 | 53 | 1.0 | 1.0 | 0.08 | 0.09 | 0.09 | 82 | 1007.2 |
| 20260903194804 | 56 | 53 | 1.0 | 1.0 | 0.09 | 0.09 | 0.09 | 82 | 1007.2 |
| 20260903194304 | 56 | 53 | 1.0 | 1.0 | 0.09 | 0.09 | 0.09 | 82 | 1007.4 |
| 20260903193804 | 56 | 53 | 1.0 | 1.0 | 0.09 | 0.09 | 0.09 | 82 | 1007.4 |
| 20260903193304 | 56 | 53 | 1.0 | 1.0 | 0.09 | 0.09 | 0.09 | 82 | 1007.5 |
| 20260903192804 | 56 | 53 | 1.0 | 1.0 | 0.09 | 0.09 | 0.09 | 80 | 1007.5 |
| 20260903192306 | 56 | 53 | 1.0 | 1.0 | 0.08 | 0.08 | 0.08 | 79 | 1007.6 |
| 20260903191804 | 57 | 53 | 1.0 | 1.0 | 0.07 | 0.07 | 0.07 | 78 | 1007.6 |
| 20260903191304 | 57 | 53 | 1.0 | 1.0 | 0.06 | 0.06 | 0.06 | 77 | 1007.7 |
| 20260903190804 | 57 | 53 | 1.0 | 1.0 | 0.04 | 0.04 | 0.04 | 77 | 1007.8 |
| 20260903190303 | 58 | 53 | 1.0 | 1.0 | 0.03 | 0.03 | 0.03 | 75 | 1007.7 |
| 20260903185804 | 58 | 53 | 1.0 | 1.0 | 0.02 | 0.02 | 0.02 | 74 | 1007.6 |
| 20260903185306 | 58 | 53 | 1.0 | 1.0 | 0.01 | 0.01 | 0.01 | 73 | 1007.8 |
| 20260903184804 | 58 | 53 | 1.0 | 1.0 | 0.00 | 0.00 | 0.00 | 72 | 1007.5 |
| 20260903183804 | 59 | 53 | 1.0 | 1.0 | 0.00 | 0.00 | 0.00 | 68 | 1007.5 |
| 20260903183303 | 59 | 53 | 1.0 | 1.0 | 0.00 | 0.00 | 0.00 | 67 | 1007.4 |
| 20260903182804 | 59 | 53 | 1.0 | 1.0 | 0.00 | 0.00 | 0.00 | 66 | 1007.4 |
| 20260903182306 | 59 | 53 | 1.0 | 1.0 | 0.00 | 0.00 | 0.00 | 65 | 1007.2 |
| 20260903181804 | 60 | 53 | 1.0 | 1.0 | 0.00 | 0.00 | 0.00 | 64 | 1007.1 |
| 20260903181303 | 60 | 53 | 1.0 | 1.0 | 0.00 | 0.00 | 0.00 | 63 | 1007.1 |
| 20260903180804 | 61 | 53 | 1.0 | 1.0 | 0.00 | 0.00 | 0.00 | 63 | 1007.3 |
| 20260903180304 | 61 | 53 | 1.0 | 1.0 | 0.00 | 0.00 | 0.00 | 62 | 1007.2 |
| 20260903175804 | 62 | 53 | 1.0 | 1.0 | 0.00 | 0.00 | 0.00 | 64 | 1007.2 |
| 20260903175306 | 62 | 53 | 1.0 | 1.0 | 0.00 | 0.00 | 0.00 | 67 | 1007.1 |
| 20260903174804 | 62 | 53 | 1.0 | 1.0 | 0.00 | 0.00 | 0.00 | 66 | 1007.0 |
| 20260903174303 | 62 | 53 | 1.0 | 1.0 | 0.00 | 0.00 | 0.00 | 65 | 1006.8 |
| 20260903173804 | 63 | 53 | 1.0 | 1.0 | 0.00 | 0.00 | 0.00 | 64 | 1006.8 |
| 20260903173304 | 63 | 53 | 1.0 | 1.0 | 0.00 | 0.00 | 0.00 | 64 | 1006.7 |
| 20260903172804 | 63 | 53 | 1.0 | 1.0 | 0.00 | 0.00 | 0.00 | 65 | 1006.7 |
| 20260903172306 | 63 | 53 | 1.0 | 1.0 | 0.00 | 0.00 | 0.00 | 66 | 1006.6 |
| 20260903171804 | 63 | 53 | 1.0 | 1.0 | 0.00 | 0.00 | 0.00 | 65 | 1006.5 |
| 20260903170804 | 63 | 53 | 1.0 | 1.0 | 0.00 | 0.00 | 0.00 | 64 | 1006.6 |
| 20260903170304 | 64 | 53 | 1.0 | 1.0 | 0.00 | 0.00 | 0.00 | 63 | 1006.5 |
| 20260903165804 | 64 | 53 | 1.0 | 1.0 | 0.00 | 0.00 | 0.00 | 63 | 1006.6 |
| 20260903165305 | 64 | 53 | 1.0 | 1.0 | 0.00 | 0.00 | 0.00 | 63 | 1006.6 |
| 20260903164304 | 64 | 53 | 1.0 | 1.0 | 0.00 | 0.00 | 0.00 | 62 | 1006.5 |
| 20260903163803 | 65 | 53 | 1.0 | 1.0 | 0.00 | 0.00 | 0.00 | 62 | 1006.2 |
| 20260903163304 | 65 | 53 | 1.0 | 1.0 | 0.00 | 0.00 | 0.00 | 62 | 1006.2 |
| 20260903162306 | 65 | 53 | 1.0 | 1.0 | 0.00 | 0.00 | 0.00 | 61 | 1006.3 |
| 20260903161804 | 66 | 53 | 1.0 | 1.0 | 0.00 | 0.00 | 0.00 | 61 | 1006.1 |
| 20260903161304 | 66 | 53 | 1.0 | 1.0 | 0.00 | 0.00 | 0.00 | 61 | 1006.1 |
| 20260903160804 | 64 | 53 | 1.0 | 1.0 | 0.00 | 0.00 | 0.00 | 63 | 1006.2 |
| 20260903160304 | 63 | 53 | 1.0 | 1.0 | 0.00 | 0.00 | 0.00 | 66 | 1006.1 |
| 20260903155803 | 62 | 53 | 1.0 | 1.0 | 0.00 | 0.00 | 0.00 | 67 | 1006.1 |
| 20260903155306 | 61 | 53 | 1.0 | 1.0 | 0.00 | 0.00 | 0.00 | 67 | 1005.9 |
| 20260903154803 | 61 | 53 | 1.0 | 1.0 | 0.00 | 0.00 | 0.00 | 68 | 1005.9 |
| 20260903154304 | 61 | 53 | 1.0 | 1.0 | 0.00 | 0.00 | 0.00 | 68 | 1005.8 |
| 20260903153803 | 60 | 53 | 1.0 | 1.0 | 0.00 | 0.00 | 0.00 | 69 | 1005.9 |
| 20260903153304 | 60 | 53 | 1.0 | 1.0 | 0.00 | 0.00 | 0.00 | 69 | 1005.8 |
| 20260903152804 | 60 | 53 | 1.0 | 1.0 | 0.00 | 0.00 | 0.00 | 70 | 1006.0 |
| 20260903152306 | 60 | 53 | 1.0 | 1.0 | 0.00 | 0.00 | 0.00 | 69 | 1005.6 |
| 20260903151804 | 60 | 53 | 1.0 | 1.0 | 0.00 | 0.00 | 0.00 | 69 | 1006.0 |
| 20260903151304 | 60 | 53 | 1.0 | 1.0 | 0.00 | 0.00 | 0.00 | 69 | 1005.8 |
| 20260903150804 | 60 | 53 | 1.0 | 1.0 | 0.00 | 0.00 | 0.00 | 69 | 1005.8 |
| 20260903145804 | 60 | 53 | 1.0 | 1.0 | 0.00 | 0.00 | 0.00 | 69 | 1005.4 |
| 20260903145306 | 60 | 53 | 1.0 | 1.0 | 0.00 | 0.00 | 0.00 | 68 | 1005.5 |
| 20260903144804 | 60 | 53 | 1.0 | 1.0 | 0.00 | 0.00 | 0.00 | 68 | 1005.6 |
| 20260903144303 | 60 | 53 | 1.0 | 1.0 | 0.00 | 0.00 | 0.00 | 68 | 1005.5 |
| 20260903143804 | 60 | 53 | 1.0 | 1.0 | 0.00 | 0.00 | 0.00 | 68 | 1005.5 |
| 20260903143303 | 60 | 53 | 1.0 | 1.0 | 0.00 | 0.00 | 0.00 | 68 | 1005.5 |
| 20260903142804 | 60 | 53 | 1.0 | 1.0 | 0.00 | 0.00 | 0.00 | 68 | 1005.3 |
| 20260903142306 | 60 | 53 | 1.0 | 1.0 | 0.00 | 0.00 | 0.00 | 68 | 1005.3 |
| 20260903141803 | 60 | 53 | 1.0 | 1.0 | 0.00 | 0.00 | 0.00 | 68 | 1005.4 |
| 20260903141304 | 60 | 53 | 1.0 | 1.0 | 0.00 | 0.00 | 0.00 | 68 | 1005.5 |
| 20260903140804 | 60 | 53 | 1.0 | 1.0 | 0.00 | 0.00 | 0.00 | 68 | 1005.5 |
| 20260903140304 | 60 | 53 | 1.0 | 1.0 | 0.00 | 0.00 | 0.00 | 68 | 1005.1 |
| 20260903135803 | 59 | 53 | 1.0 | 1.0 | 0.00 | 0.00 | 0.00 | 69 | 1005.4 |
| 20260903134803 | 59 | 53 | 1.0 | 1.0 | 0.00 | 0.00 | 0.00 | 69 | 1005.3 |
| 20260903134304 | 59 | 53 | 1.0 | 1.0 | 0.00 | 0.00 | 0.00 | 68 | 1005.3 |
| 20260903133803 | 59 | 53 | 1.0 | 1.0 | 0.00 | 0.00 | 0.00 | 69 | 1005.2 |
| 20260903133304 | 59 | 53 | 1.0 | 1.0 | 0.00 | 0.00 | 0.00 | 69 | 1005.3 |
| 20260903132803 | 59 | 53 | 1.0 | 1.0 | 0.00 | 0.00 | 0.00 | 69 | 1005.1 |
| 20260903132306 | 58 | 53 | 1.0 | 1.0 | 0.00 | 0.00 | 0.00 | 70 | 1005.4 |
| 20260903131804 | 58 | 53 | 1.0 | 1.0 | 0.00 | 0.00 | 0.00 | 70 | 1005.3 |
| 20260903131304 | 58 | 53 | 1.0 | 1.0 | 0.00 | 0.00 | 0.00 | 71 | 1005.3 |
| 20260903130804 | 58 | 53 | 1.0 | 1.0 | 0.00 | 0.00 | 0.00 | 71 | 1005.4 |
| 20260903124804 | 58 | 53 | 1.0 | 1.0 | 0.00 | 0.00 | 0.00 | 71 | 1005.2 |
| 20260903124304 | 58 | 53 | 1.0 | 1.0 | 0.00 | 0.00 | 0.00 | 70 | 1005.1 |
| 20260903123804 | 58 | 53 | 1.0 | 1.0 | 0.00 | 0.00 | 0.00 | 70 | 1005.1 |
| 20260903123303 | 59 | 53 | 1.0 | 1.0 | 0.00 | 0.00 | 0.00 | 69 | 1005.1 |
| 20260903122804 | 59 | 53 | 1.0 | 1.0 | 0.00 | 0.00 | 0.00 | 69 | 1005.0 |
| 20260903122305 | 59 | 53 | 1.0 | 1.0 | 0.00 | 0.00 | 0.00 | 69 | 1005.0 |
| 20260903121804 | 58 | 53 | 1.0 | 1.0 | 0.00 | 0.00 | 0.00 | 70 | 1005.1 |
| 20260903121304 | 58 | 53 | 1.0 | 1.0 | 0.00 | 0.00 | 0.00 | 68 | 1004.8 |
| 20260903120804 | 58 | 53 | 1.0 | 1.0 | 0.00 | 0.00 | 0.00 | 68 | 1004.9 |
| 20260903120304 | 58 | 53 | 1.0 | 1.0 | 0.00 | 0.00 | 0.00 | 68 | 1004.8 |
| 20260903115804 | 58 | 53 | 1.0 | 1.0 | 0.00 | 0.00 | 0.00 | 67 | 1004.9 |
| 20260903115305 | 58 | 53 | 1.0 | 1.0 | 0.00 | 0.00 | 0.00 | 65 | 1004.9 |
| 20260903114804 | 58 | 53 | 1.0 | 1.0 | 0.00 | 0.00 | 0.00 | 64 | 1004.9 |
| 20260903114303 | 58 | 53 | 1.0 | 1.0 | 0.00 | 0.00 | 0.00 | 61 | 1004.9 |
| 20260903113804 | 58 | 53 | 1.0 | 1.0 | 0.00 | 0.00 | 0.00 | 60 | 1004.9 |
| 20260903113304 | 58 | 53 | 1.0 | 1.0 | 0.00 | 0.00 | 0.00 | 60 | 1004.9 |
| 20260903112305 | 58 | 53 | 1.0 | 1.0 | 0.00 | 0.00 | 0.00 | 60 | 1004.7 |
| 20260903111804 | 58 | 53 | 1.0 | 1.0 | 0.00 | 0.00 | 0.00 | 60 | 1004.7 |
| 20260903111304 | 58 | 53 | 1.0 | 1.0 | 0.00 | 0.00 | 0.00 | 60 | 1005.0 |
| 20260903110804 | 58 | 53 | 1.0 | 1.0 | 0.00 | 0.00 | 0.00 | 60 | 1004.8 |
| 20260903105803 | 58 | 53 | 1.0 | 1.0 | 0.00 | 0.00 | 0.00 | 61 | 1004.9 |
| 20260903105306 | 58 | 53 | 1.0 | 1.0 | 0.00 | 0.00 | 0.00 | 61 | 1004.9 |
| 20260903104304 | 58 | 53 | 1.0 | 1.0 | 0.00 | 0.00 | 0.00 | 61 | 1004.7 |
| 20260903103804 | 58 | 53 | 1.0 | 1.0 | 0.00 | 0.00 | 0.00 | 61 | 1004.8 |
| 20260903103304 | 58 | 53 | 1.0 | 1.0 | 0.00 | 0.00 | 0.00 | 61 | 1004.9 |
| 20260903102803 | 59 | 53 | 1.0 | 1.0 | 0.00 | 0.00 | 0.00 | 60 | 1004.9 |
| 20260903102306 | 59 | 53 | 1.0 | 1.0 | 0.00 | 0.00 | 0.00 | 60 | 1004.8 |
| 20260903101803 | 59 | 53 | 1.0 | 1.0 | 0.00 | 0.00 | 0.00 | 60 | 1004.9 |
| 20260903101304 | 59 | 53 | 1.0 | 1.0 | 0.00 | 0.00 | 0.00 | 60 | 1004.9 |
| 20260903100304 | 59 | 53 | 1.0 | 1.0 | 0.00 | 0.00 | 0.00 | 60 | 1004.9 |
| 20260903095803 | 59 | 53 | 1.0 | 1.0 | 0.00 | 0.00 | 0.00 | 60 | 1004.8 |
| 20260903095306 | 59 | 53 | 1.0 | 1.0 | 0.00 | 0.00 | 0.00 | 60 | 1004.8 |
| 20260903094803 | 59 | 53 | 1.0 | 1.0 | 0.00 | 0.00 | 0.00 | 59 | 1004.7 |
| 20260903094304 | 59 | 53 | 1.0 | 1.0 | 0.00 | 0.00 | 0.00 | 59 | 1004.7 |
| 20260903093304 | 60 | 53 | 1.0 | 1.0 | 0.00 | 0.00 | 0.00 | 58 | 1004.8 |
| 20260903092804 | 60 | 53 | 1.0 | 1.0 | 0.00 | 0.00 | 0.00 | 57 | 1004.8 |
| 20260903092306 | 60 | 53 | 1.0 | 1.0 | 0.00 | 0.00 | 0.00 | 57 | 1004.7 |
| 20260903091804 | 60 | 53 | 1.0 | 1.0 | 0.00 | 0.00 | 0.00 | 57 | 1004.9 |
| 20260903091304 | 60 | 53 | 1.0 | 1.0 | 0.00 | 0.00 | 0.00 | 57 | 1005.0 |
| 20260903090804 | 60 | 53 | 1.0 | 1.0 | 0.00 | 0.00 | 0.00 | 58 | 1004.9 |
| 20260903090304 | 60 | 53 | 1.0 | 1.0 | 0.00 | 0.00 | 0.00 | 58 | 1004.8 |
| 20260903085804 | 60 | 53 | 1.0 | 1.0 | 0.00 | 0.00 | 0.00 | 58 | 1004.8 |
| 20260903085306 | 60 | 53 | 1.0 | 1.0 | 0.00 | 0.00 | 0.00 | 58 | 1004.7 |
| 20260903084804 | 59 | 53 | 1.0 | 1.0 | 0.00 | 0.00 | 0.00 | 59 | 1004.8 |
| 20260903084304 | 59 | 53 | 1.0 | 1.0 | 0.00 | 0.00 | 0.00 | 59 | 1004.7 |
| 20260903083804 | 59 | 53 | 1.0 | 1.0 | 0.00 | 0.00 | 0.00 | 60 | 1004.6 |
| 20260903083303 | 59 | 53 | 1.0 | 1.0 | 0.00 | 0.00 | 0.00 | 60 | 1004.5 |
| 20260903082804 | 59 | 53 | 1.0 | 1.0 | 0.00 | 0.00 | 0.00 | 61 | 1004.5 |
| 20260903082306 | 59 | 53 | 1.0 | 1.0 | 0.00 | 0.00 | 0.00 | 61 | 1004.5 |
| 20260903081804 | 59 | 53 | 1.0 | 1.0 | 0.00 | 0.00 | 0.00 | 61 | 1004.5 |
| 20260903081304 | 58 | 53 | 1.0 | 1.0 | 0.00 | 0.00 | 0.00 | 61 | 1004.7 |
| 20260903080803 | 58 | 53 | 1.0 | 1.0 | 0.00 | 0.00 | 0.00 | 61 | 1004.6 |
| 20260903080304 | 58 | 53 | 1.0 | 1.0 | 0.00 | 0.00 | 0.00 | 61 | 1004.7 |
| 20260903075804 | 58 | 53 | 1.0 | 1.0 | 0.00 | 0.00 | 0.00 | 61 | 1004.8 |
| 20260903075306 | 58 | 53 | 1.0 | 1.0 | 0.00 | 0.00 | 0.00 | 61 | 1004.8 |
| 20260903074804 | 58 | 53 | 1.0 | 1.0 | 0.00 | 0.00 | 0.00 | 61 | 1004.7 |
| 20260903074303 | 58 | 53 | 1.0 | 1.0 | 0.00 | 0.00 | 0.00 | 62 | 1004.8 |
| 20260903073804 | 58 | 53 | 1.0 | 1.0 | 0.00 | 0.00 | 0.00 | 62 | 1004.8 |
| 20260903073304 | 58 | 53 | 1.0 | 1.0 | 0.00 | 0.00 | 0.00 | 62 | 1004.8 |
| 20260903072803 | 58 | 53 | 1.0 | 1.0 | 0.00 | 0.00 | 0.00 | 63 | 1004.9 |
| 20260903072306 | 58 | 53 | 1.0 | 1.0 | 0.00 | 0.00 | 0.00 | 63 | 1004.9 |
| 20260903071804 | 58 | 53 | 1.0 | 1.0 | 0.00 | 0.00 | 0.00 | 63 | 1004.8 |
| 20260903071304 | 58 | 53 | 1.0 | 1.0 | 0.00 | 0.00 | 0.00 | 63 | 1004.7 |
| 20260903070304 | 58 | 53 | 1.0 | 1.0 | 0.00 | 0.00 | 0.00 | 63 | 1004.6 |
| 20260903065804 | 58 | 53 | 1.0 | 1.0 | 0.00 | 0.00 | 0.00 | 63 | 1004.7 |
| 20260903065306 | 58 | 53 | 1.0 | 1.0 | 0.00 | 0.00 | 0.00 | 62 | 1004.6 |
| 20260903064804 | 58 | 53 | 1.0 | 1.0 | 0.00 | 0.00 | 0.00 | 62 | 1004.5 |
| 20260903064304 | 58 | 53 | 1.0 | 1.0 | 0.00 | 0.00 | 0.00 | 62 | 1004.4 |
| 20260903063804 | 58 | 53 | 1.0 | 1.0 | 0.00 | 0.00 | 0.00 | 63 | 1004.1 |
| 20260903063304 | 58 | 53 | 1.0 | 1.0 | 0.00 | 0.00 | 0.00 | 63 | 1004.3 |
| 20260903062804 | 58 | 53 | 1.0 | 1.0 | 0.00 | 0.00 | 0.00 | 63 | 1004.4 |
| 20260903062306 | 58 | 53 | 1.0 | 1.0 | 0.00 | 0.00 | 0.00 | 63 | 1004.4 |
| 20260903061304 | 58 | 53 | 1.0 | 1.0 | 0.00 | 0.00 | 0.00 | 63 | 1004.6 |
| 20260903060804 | 58 | 53 | 1.0 | 1.0 | 0.00 | 0.00 | 0.00 | 63 | 1004.6 |
| 20260903060305 | 59 | 53 | 1.0 | 1.0 | 0.00 | 0.00 | 0.00 | 63 | 1004.7 |
| 20260903055804 | 59 | 53 | 1.0 | 1.0 | 0.00 | 0.00 | 0.00 | 63 | 1004.7 |
| 20260903055306 | 59 | 53 | 1.0 | 1.0 | 0.00 | 0.00 | 0.00 | 62 | 1004.7 |
| 20260903054803 | 59 | 53 | 1.0 | 1.0 | 0.00 | 0.00 | 0.00 | 62 | 1004.5 |
| 20260903054304 | 59 | 53 | 1.0 | 1.0 | 0.00 | 0.00 | 0.00 | 61 | 1004.7 |
| 20260903053803 | 60 | 53 | 1.0 | 1.0 | 0.00 | 0.00 | 0.00 | 61 | 1004.5 |
| 20260903053304 | 60 | 53 | 1.0 | 1.0 | 0.00 | 0.00 | 0.00 | 60 | 1004.6 |
| 20260903052804 | 60 | 53 | 1.0 | 1.0 | 0.00 | 0.00 | 0.00 | 59 | 1004.6 |
| 20260903052307 | 60 | 53 | 1.0 | 1.0 | 0.00 | 0.00 | 0.00 | 60 | 1004.7 |
| 20260903051804 | 60 | 53 | 1.0 | 1.0 | 0.00 | 0.00 | 0.00 | 59 | 1004.5 |
| 20260903051304 | 60 | 53 | 1.0 | 1.0 | 0.00 | 0.00 | 0.00 | 59 | 1004.6 |
| 20260903050804 | 61 | 53 | 1.0 | 1.0 | 0.00 | 0.00 | 0.00 | 60 | 1004.8 |
| 20260903050304 | 61 | 53 | 1.0 | 1.0 | 0.00 | 0.00 | 0.00 | 59 | 1004.7 |
| 20260903045804 | 61 | 53 | 1.0 | 1.0 | 0.00 | 0.00 | 0.00 | 59 | 1004.8 |
| 20260903044803 | 61 | 53 | 1.0 | 1.0 | 0.00 | 0.00 | 0.00 | 60 | 1004.8 |
| 20260903044304 | 61 | 53 | 1.0 | 1.0 | 0.00 | 0.00 | 0.00 | 61 | 1004.8 |
| 20260903043803 | 61 | 53 | 1.0 | 1.0 | 0.00 | 0.00 | 0.00 | 60 | 1004.7 |
| 20260903042804 | 61 | 53 | 1.0 | 1.0 | 0.00 | 0.00 | 0.00 | 60 | 1005.1 |
| 20260903042306 | 61 | 53 | 1.0 | 1.0 | 0.00 | 0.00 | 0.00 | 61 | 1005.1 |
| 20260903041804 | 61 | 53 | 1.0 | 1.0 | 0.00 | 0.00 | 0.00 | 60 | 1005.2 |
| 20260903041304 | 61 | 53 | 1.0 | 1.0 | 0.00 | 0.00 | 0.00 | 60 | 1005.1 |
| 20260903040804 | 61 | 53 | 1.0 | 1.0 | 0.00 | 0.00 | 0.00 | 60 | 1005.2 |
| 20260903040304 | 61 | 53 | 1.0 | 1.0 | 0.00 | 0.00 | 0.00 | 60 | 1005.3 |